Regional Weather Roundup
Issued by NWS

Home | Current Version | Previous Version | Text Only | Print | Product List | Glossary Off
Versions: 1 2 3 4 5 6 7 8 9 10 11 12 13 14 15 16 17 18 19 20 21 22 23 24 25 26 27 28 29 30 31 32 33 34 35 36 37 38 39 40 41 42 43 44 45 46 47 48 49 50

000
ASUS43 KFSD 210910
RWRSD

WEATHER ROUNDUP FOR SOUTH DAKOTA
NATIONAL WEATHER SERVICE SIOUX FALLS SD
400 AM CDT FRI JUL 21 2017

NOTE: "FAIR" INDICATES FEW OR NO CLOUDS BELOW 12,000 FEET WITH NO
SIGNIFICANT WEATHER AND/OR OBSTRUCTIONS TO VISIBILITY.


SDZ001>005-009-010-012>017-211000-
NORTHWEST AND NORTH CENTRAL SOUTH DAKOTA

CITY           SKY/WX    TMP DP  RH WIND       PRES   REMARKS
BUFFALO          N/A     67  62  84 S13       29.81S
FAITH            N/A     68  65  90 SE31G41   29.80F
MOBRIDGE       LGT RAIN  70  65  84 S13       29.79F
$$

SDZ012>016-024>037-041>051-057-063-072>074-211000-
SOUTHWEST AND SOUTH CENTRAL SOUTH DAKOTA

CITY           SKY/WX    TMP DP  RH WIND       PRES   REMARKS
RAPID CTY ARPT CLOUDY    65  63  93 NW7       29.91F
PIERRE         NOT AVBL
CUSTER         CLOUDY    60  57  89 NW5       30.03F
ELLSWORTH AFB  CLOUDY    65  65 100 CALM      29.91F
PHILIP         LGT RAIN  69  66  90 NE18      29.85F
PINE RIDGE     CLOUDY    70  67  90 E3        29.88F
SPEARFISH      FAIR      64  61  88 E3        29.91S
WINNER         FAIR      77  74  90 E10       29.84S
$$

SDZ004>011-016>023-039-040-211000-
NORTHEAST SOUTH DAKOTA

CITY           SKY/WX    TMP DP  RH WIND       PRES   REMARKS
ABERDEEN       MOCLDY    71  64  78 W10       29.88R
WATERTOWN      CLOUDY    72  71  97 SE7       29.88F
BROOKINGS      CLOUDY    73  71  93 E7        29.88F
SISSETON         N/A     71  69  93 SE15G21   29.82F
$$

SDZ017-020-022-023-036>040-048>070-211000-
SOUTHEAST SOUTH DAKOTA

CITY           SKY/WX    TMP DP  RH WIND       PRES   REMARKS
SIOUX FALLS    MOCLDY    76  74  93 E6        29.85F
HURON          PTCLDY    73  71  93 E7        29.84F
CHAMBERLAIN    CLOUDY    76  75  97 NE5       29.84F
MITCHELL       CLOUDY    75  73  93 SE7       29.83F
YANKTON        CLOUDY    73  70  90 SE8       29.84F
$$

ABBREVIATIONS USED IN REMARKS
   TC - TEMPERATURE IN CELSIUS
  WCI - WIND CHILL INDEX
   HX - HEAT INDEX
  VSB - VISIBILITY




USA.gov is the U.S. government's official web portal to all federal, state and local government web resources and services.